Flag for United Kingdom Weather past 2 weeks in St Helens, England, United Kingdom

Now
64 °F

Partly sunny.


Feels Like: 64 °F
Forecast: 60 / 68 °F
Wind: 15 mph from Northwest

Location: Liverpool Airport

Current Time: Jul 30, 2014 at 1:33:47 PM

Latest Report: Jul 30, 2014 at 12:50 PM


Visibility: N/A

Pressure: 29.98 "Hg

Humidity: 68%

Dew point: 54 °F

Location of St HelensLocation

Historic Weather in St Helens — Graph

°F

St Helens temperature yesterday

Maximum temperature yesterday: 66 °F (at 10:50 AM)
Minimum temperature yesterday: 57 °F (at 4:50 AM)
Average temperature yesterday: 62 °F

Past Weeks' High & Low Weather Summary

 TemperatureHumidityPressure
High82 °F (Jul 25, 3:20 PM)100% (Jul 19, 5:20 AM)30.24 "Hg (Jul 19, 5:20 AM)
Low55 °F (Jul 16, 2:20 AM)35% (Jul 25, 3:50 PM)29.71 "Hg (Jul 19, 5:20 PM)
Average66 °F74%30.04 "Hg
* Reported Jul 15 12:20 PM — Jul 30 12:20 PM, St Helens, Weather by CustomWeather, © 2014

Note: Actual official high and low records may vary slightly from our data, if they occured in-between our weather recording intervals... More about our weather records

Advertising

St Helens weather history for previous 24 hours

 ConditionsComfort  
Time TempWeatherWind HumidityBarometerVisibility
12:20 PM
Jul 30
66 °FPartly sunny.17 mph64%29.98 "HgN/A
11:50 AM64 °FPartly sunny.15 mph68%30.01 "HgN/A
11:20 AM66 °FPartly sunny.20 mph64%30.01 "HgN/A
10:50 AM63 °FBroken clouds.18 mph73%30.01 "HgN/A
9:50 AM61 °FBroken clouds.16 mph83%30.01 "HgN/A
9:20 AM61 °FBroken clouds.16 mph77%30.01 "HgN/A
8:50 AM61 °FBroken clouds.16 mph83%30.01 "HgN/A
8:20 AM61 °FPartly sunny.14 mph83%29.98 "HgN/A
7:50 AM63 °FPartly sunny.14 mph77%29.98 "HgN/A
7:20 AM61 °FPartly sunny.15 mph83%29.98 "HgN/A
6:50 AM63 °FPartly sunny.13 mph73%29.98 "HgN/A
6:20 AM61 °FPassing clouds.12 mph77%29.98 "HgN/A
5:50 AM61 °FPassing clouds.13 mph72%29.98 "HgN/A
5:20 AM61 °FPassing clouds.9 mph72%29.98 "HgN/A
4:50 AM61 °FPassing clouds.13 mph68%29.98 "HgN/A
4:20 AM61 °FPassing clouds.12 mph68%29.98 "HgN/A
3:50 AM61 °FPassing clouds.13 mph72%30.01 "HgN/A
3:20 AM61 °FPassing clouds.13 mph72%30.01 "HgN/A
2:50 AM61 °FPassing clouds.13 mph77%30.01 "HgN/A
2:20 AM61 °FPassing clouds.9 mph77%30.01 "HgN/A
1:50 AM61 °FPassing clouds.8 mph77%30.01 "HgN/A
1:20 AM63 °FPassing clouds.10 mph77%30.01 "HgN/A
12:50 AM63 °FPassing clouds.9 mph77%30.01 "HgN/A
12:20 AM63 °FPassing clouds.12 mph77%30.01 "HgN/A
11:50 PM
Jul 29
63 °FPassing clouds.13 mph83%30.04 "HgN/A
11:20 PM63 °FPassing clouds.10 mph83%30.04 "HgN/A
10:50 PM63 °FPassing clouds.10 mph77%30.04 "HgN/A
10:20 PM63 °FPassing clouds.9 mph77%30.04 "HgN/A
9:50 PM63 °FScattered clouds.8 mph77%30.04 "HgN/A
9:20 PM63 °FScattered clouds.8 mph77%30.01 "HgN/A
8:50 PM63 °FScattered clouds.13 mph77%30.01 "HgN/A
8:20 PM63 °FScattered clouds.13 mph77%30.04 "HgN/A
7:50 PM63 °FScattered clouds.14 mph73%30.04 "HgN/A
7:20 PM64 °FScattered clouds.14 mph68%30.04 "HgN/A
6:50 PM64 °FScattered clouds.14 mph68%30.04 "HgN/A
6:20 PM66 °FScattered clouds.15 mph68%30.04 "HgN/A
5:50 PM64 °FScattered clouds.17 mph68%30.04 "HgN/A
5:20 PM66 °FScattered clouds.17 mph68%30.04 "HgN/A
4:50 PM66 °FScattered clouds.17 mph64%30.04 "HgN/A
4:20 PM66 °FScattered clouds.15 mph73%30.04 "HgN/A
3:50 PM64 °FScattered clouds.13 mph78%30.04 "HgN/A
3:20 PM63 °FScattered showers. Broken clouds.15 mph88%30.04 "HgN/A
2:50 PM63 °FScattered showers. Broken clouds.13 mph94%30.04 "Hg6 mi
2:20 PM64 °FSprinkles. Broken clouds.17 mph83%30.04 "Hg5 mi
1:50 PM64 °FScattered showers. Broken clouds.16 mph83%30.04 "HgN/A
1:20 PM64 °FScattered showers. Broken clouds.13 mph83%30.04 "HgN/A
Weather by CustomWeather, © 2014

See weather overviewHow to use our weather pages